Change the Weather History Date:

Monday, December 2, 2013

  Actual Average Record
Temperature  
Mean Temperature 32 °F -  
Max Temperature 33 °F 40 °F 55 °F (1970)
Min Temperature 30 °F 21 °F -4 °F (1989)
Degree Days  
Heating Degree Days 34    
Moisture  
Dew Point 30 °F    
Average Humidity 90    
Maximum Humidity 93    
Minimum Humidity 87    
Precipitation  
Precipitation 0.15 in - - ()
Sea Level Pressure  
Sea Level Pressure 29.97 in    
Wind  
Wind Speed 9 mph (NNE)    
Max Wind Speed 15 mph    
Max Gust Speed -    
Visibility 3 miles    
Events      
Averages and records for this station are not official NWS values.
T = Trace of Precipitation, MM = Missing Value Source: NWS Daily Summary

Daily Weather History Graph

Daily Weather History Graph

Search for Another Location

Airport or City:

Trip Planner

Search our weather history database for the weather conditions in past years. The results will help you decide how hot, cold, wet, or windy it might be!

Date:

Astronomy

Dec. 02, 2013 Rise Set
Actual Time 6:56 AM EST 3:59 PM EST
Civil Twilight 6:23 AM EST 4:32 PM EST
Nautical Twilight 5:47 AM EST 5:09 PM EST
Astronomical Twilight 5:12 AM EST 5:44 PM EST
Moon 6:16 AM EST (12/2) 4:00 PM EST (12/2)
Length of Visible Light 10h 09m
Length of Day
9h 03m
Waning Crescent, 0% of the Moon is Illuminated
Dec 2
Waning Crescent
Dec 2
New
Dec 9
First Quarter
Dec 17
Full
Dec 25
Last Quarter

Hourly Weather History & Observations

Time (EST) Temp. Windchill Dew Point Humidity Pressure Visibility Wind Dir Wind Speed Gust Speed Precip Events Conditions
12:15 AM 30.2 °F 22.6 °F 28.4 °F 93% 30.07 in 1.2 mi NNE 8.1 mph - N/A   Overcast
12:35 AM 30.2 °F 21.9 °F 28.4 °F 93% 30.07 in 1.2 mi North 9.2 mph - N/A   Overcast
12:55 AM 30.2 °F 22.6 °F 28.4 °F 93% 30.07 in 1.2 mi NNE 8.1 mph - N/A   Overcast
1:15 AM 30.2 °F 21.9 °F 28.4 °F 93% 30.06 in 1.2 mi NNE 9.2 mph - 0.01 in   Overcast
1:35 AM 30.2 °F 21.9 °F 28.4 °F 93% 30.06 in 1.0 mi North 9.2 mph - 0.01 in   Overcast
1:55 AM 30.2 °F 21.3 °F 28.4 °F 93% 30.06 in 1.0 mi NNE 10.4 mph - 0.01 in   Overcast
2:15 AM 30.2 °F 21.3 °F 28.4 °F 93% 30.06 in 1.0 mi NNE 10.4 mph - N/A   Overcast
2:35 AM 30.2 °F 21.3 °F 28.4 °F 93% 30.05 in 1.2 mi NNE 10.4 mph - 0.01 in   Overcast
2:55 AM 30.2 °F 21.3 °F 28.4 °F 93% 30.04 in 1.8 mi NNE 10.4 mph - 0.01 in   Overcast
3:15 AM 30.2 °F 21.3 °F 28.4 °F 93% 30.04 in 2.0 mi NNE 10.4 mph - 0.01 in   Overcast
3:35 AM 30.2 °F 21.3 °F 28.4 °F 93% 30.03 in 1.5 mi NNE 10.4 mph - 0.01 in   Overcast
3:55 AM 30.2 °F 20.8 °F 28.4 °F 93% 30.02 in 5.0 mi NNE 11.5 mph - 0.01 in   Overcast
4:15 AM 30.2 °F 20.2 °F 28.4 °F 93% 30.02 in 10.0 mi NNE 12.7 mph - 0.01 in   Overcast
4:35 AM 30.2 °F 20.2 °F 28.4 °F 93% 30.01 in 10.0 mi NNE 12.7 mph - 0.01 in   Overcast
4:55 AM 30.2 °F 19.8 °F 28.4 °F 93% 30.01 in 10.0 mi NNE 13.8 mph - 0.02 in   Overcast
5:15 AM 30.2 °F 19.3 °F 28.4 °F 93% 30.01 in 10.0 mi NNE 15.0 mph - N/A   Overcast
5:35 AM 30.2 °F 20.8 °F 28.4 °F 93% 30.01 in 10.0 mi North 11.5 mph - 0.01 in   Overcast
5:55 AM 30.2 °F 21.3 °F 28.4 °F 93% 30.01 in 4.0 mi North 10.4 mph - 0.02 in   Overcast
6:15 AM 30.2 °F 21.3 °F 28.4 °F 93% 30.02 in 5.0 mi NNE 10.4 mph - 0.01 in   Overcast
6:35 AM 30.2 °F 21.3 °F 28.4 °F 93% 30.01 in 6.0 mi NNE 10.4 mph - 0.01 in   Overcast
6:55 AM 30.2 °F 21.3 °F 28.4 °F 93% 30.01 in 3.0 mi NNE 10.4 mph - 0.02 in   Overcast
7:15 AM 30.2 °F 20.8 °F 28.4 °F 93% 30.00 in 6.0 mi North 11.5 mph - N/A   Overcast
7:35 AM 30.2 °F 21.3 °F 28.4 °F 93% 30.00 in 5.0 mi North 10.4 mph - N/A   Overcast
7:55 AM 30.2 °F 21.9 °F 28.4 °F 93% 30.01 in 5.0 mi NNE 9.2 mph - N/A   Overcast
8:15 AM 30.2 °F 21.9 °F 28.4 °F 93% 30.01 in 4.0 mi NNE 9.2 mph - 0.01 in   Overcast
8:35 AM 30.2 °F 21.3 °F 28.4 °F 93% 30.00 in 8.0 mi NNE 10.4 mph - 0.01 in   Overcast
8:55 AM 32.0 °F 23.6 °F 28.4 °F 87% 30.00 in 9.0 mi NNE 10.4 mph - 0.03 in   Overcast
9:15 AM 32.0 °F 24.2 °F 30.2 °F 93% 30.00 in 3.0 mi NNE 9.2 mph - 0.01 in   Overcast
9:35 AM 32.0 °F 23.6 °F 30.2 °F 93% 29.99 in 3.0 mi NNE 10.4 mph - 0.03 in   Overcast
9:55 AM 32.0 °F 24.2 °F 30.2 °F 93% 29.99 in 5.0 mi North 9.2 mph - 0.03 in   Overcast
10:15 AM 32.0 °F 24.2 °F 30.2 °F 93% 29.99 in 5.0 mi NNE 9.2 mph - N/A   Overcast
10:35 AM 32.0 °F 23.6 °F 30.2 °F 93% 29.98 in 4.0 mi NNE 10.4 mph - N/A   Overcast
10:55 AM 32.0 °F 23.0 °F 30.2 °F 93% 29.97 in 4.0 mi NNE 11.5 mph - N/A   Overcast
11:15 AM 32.0 °F 24.2 °F 30.2 °F 93% 29.96 in 3.0 mi NNE 9.2 mph - N/A   Overcast
11:35 AM 32.0 °F 23.6 °F 30.2 °F 93% 29.96 in 4.0 mi NNE 10.4 mph - N/A   Overcast
11:55 AM 33.8 °F 25.8 °F 30.2 °F 87% 29.95 in 2.5 mi NNE 10.4 mph - N/A   Overcast
12:15 PM 33.8 °F 27.0 °F 30.2 °F 87% 29.95 in 3.0 mi North 8.1 mph - N/A   Overcast
12:35 PM 33.8 °F 26.4 °F 30.2 °F 87% 29.95 in 3.0 mi North 9.2 mph - N/A   Overcast
12:55 PM 33.8 °F 27.7 °F 30.2 °F 87% 29.94 in 3.0 mi NNE 6.9 mph - N/A   Overcast
1:15 PM 33.8 °F 25.8 °F 30.2 °F 87% 29.94 in 3.0 mi NNE 10.4 mph - N/A   Overcast
1:35 PM 33.8 °F 26.4 °F 30.2 °F 87% 29.94 in 4.0 mi NNE 9.2 mph - N/A   Overcast
1:55 PM 33.8 °F 27.0 °F 30.2 °F 87% 29.94 in 4.0 mi North 8.1 mph - N/A   Overcast
2:15 PM 33.8 °F 26.4 °F 30.2 °F 87% 29.94 in 4.0 mi NNE 9.2 mph - N/A   Overcast
2:35 PM 33.8 °F 26.4 °F 30.2 °F 87% 29.94 in 4.0 mi North 9.2 mph - N/A   Overcast
2:55 PM 33.8 °F 27.0 °F 30.2 °F 87% 29.94 in 3.0 mi North 8.1 mph - N/A   Overcast
3:15 PM 33.8 °F 25.8 °F 30.2 °F 87% 29.94 in 1.8 mi North 10.4 mph - N/A   Overcast
3:35 PM 33.8 °F 26.4 °F 30.2 °F 87% 29.93 in 1.8 mi North 9.2 mph - N/A   Overcast
3:55 PM 33.8 °F 24.8 °F 30.2 °F 87% 29.92 in 2.0 mi North 12.7 mph - N/A   Overcast
4:15 PM 33.8 °F 25.8 °F 30.2 °F 87% 29.93 in 1.5 mi North 10.4 mph - N/A   Overcast
4:35 PM 33.8 °F 27.7 °F 30.2 °F 87% 29.92 in 3.0 mi NNE 6.9 mph - N/A   Overcast
4:55 PM 33.8 °F 27.7 °F 30.2 °F 87% 29.93 in 3.0 mi NNE 6.9 mph - N/A   Overcast
5:15 PM 33.8 °F 26.4 °F 30.2 °F 87% 29.93 in 2.5 mi NNE 9.2 mph - N/A   Overcast
5:35 PM 33.8 °F 27.7 °F 30.2 °F 87% 29.93 in 1.8 mi North 6.9 mph - N/A   Overcast
5:55 PM 33.8 °F 27.7 °F 30.2 °F 87% 29.94 in 1.2 mi North 6.9 mph - N/A   Overcast
6:15 PM 33.8 °F 27.7 °F 30.2 °F 87% 29.94 in 1.0 mi North 6.9 mph - N/A   Overcast
6:35 PM 33.8 °F 27.7 °F 30.2 °F 87% 29.94 in 0.8 mi NNE 6.9 mph - N/A   Overcast
6:55 PM 33.8 °F 27.7 °F 30.2 °F 87% 29.94 in 0.8 mi North 6.9 mph - N/A   Overcast
7:15 PM 33.8 °F 28.6 °F 30.2 °F 87% 29.95 in 0.8 mi North 5.8 mph - N/A   Overcast
7:35 PM 33.8 °F 26.4 °F 30.2 °F 87% 29.93 in 0.5 mi North 9.2 mph - N/A   Overcast
7:55 PM 33.8 °F 26.4 °F 30.2 °F 87% 29.93 in 0.8 mi North 9.2 mph - N/A   Overcast
8:15 PM 33.8 °F 27.0 °F 30.2 °F 87% 29.93 in 0.8 mi NNE 8.1 mph - N/A   Overcast
8:35 PM 32.0 °F 25.6 °F 30.2 °F 93% 29.93 in 0.8 mi North 6.9 mph - N/A   Overcast
8:55 PM 33.8 °F 27.7 °F 30.2 °F 87% 29.93 in 0.8 mi North 6.9 mph - N/A   Overcast
9:15 PM 33.8 °F 27.7 °F 30.2 °F 87% 29.92 in 0.8 mi North 6.9 mph - N/A   Overcast
9:35 PM 32.0 °F 25.6 °F 30.2 °F 93% 29.92 in 0.8 mi North 6.9 mph - N/A   Overcast
9:55 PM 33.8 °F 28.6 °F 30.2 °F 87% 29.93 in 0.8 mi North 5.8 mph - N/A   Overcast
10:15 PM 33.8 °F 28.6 °F 30.2 °F 87% 29.93 in 0.8 mi North 5.8 mph - N/A   Overcast
10:35 PM 33.8 °F 27.0 °F 32.0 °F 93% 29.92 in 0.8 mi North 8.1 mph - N/A   Overcast
10:55 PM 33.8 °F 27.0 °F 30.2 °F 87% 29.92 in 0.8 mi NNE 8.1 mph - N/A   Overcast
11:15 PM 33.8 °F 27.0 °F 32.0 °F 93% 29.91 in 0.8 mi North 8.1 mph - N/A   Overcast
11:35 PM 33.8 °F 27.0 °F 32.0 °F 93% 29.91 in 0.8 mi North 8.1 mph - N/A   Overcast
11:55 PM 33.8 °F 27.7 °F 30.2 °F 87% 29.90 in 1.0 mi North 6.9 mph - N/A   Overcast